Regional Weather Roundup
Issued by NWS Northern Indiana

Home | Current Version | Previous Version | Graphics & Text | Print | Product List | Glossary On
Versions: 1 2 3 4 5 6 7 8 9 10 11 12 13 14 15 16 17 18 19 20 21 22 23 24 25 26 27 28 29 30 31 32 33 34 35 36 37 38 39 40 41 42 43 44 45 46 47 48 49 50
000
ASUS43 KIWX 180600
RWRIWX

KIWX WEATHER ROUNDUP
NATIONAL WEATHER SERVICE NORTHERN INDIANA
100 AM EST SAT NOV 18 2017

NOTE: "FAIR" INDICATES FEW OR NO CLOUDS BELOW 12,000 FEET WITH NO
SIGNIFICANT WEATHER AND/OR OBSTRUCTIONS TO VISIBILITY.

* THESE STATIONS ARE NOT UNDER NWS QUALITY CONTROL. THEY ALSO MAY NOT
  REPORT WEATHER SUCH AS PRECIPITATION OR FOG.

INZ001>027-180700-
NORTHERN INDIANA

CITY           SKY/WX    TMP DP  RH WIND       PRES   REMARKS
VALPARAISO     LGT RAIN  46  43  87 SE3       29.59F FOG
MICHIGAN CITY* DRIZZLE   43  43 100 S9        29.58F
KNOX*          CLOUDY    45  41  87 CALM      29.60F
SOUTH BEND     LGT RAIN  43  43 100 S13       29.60F
6HR MIN TEMP:  41; 6HR MAX TEMP:  45; 6HR PCP:  0.55;

GOSHEN         LGT RAIN  44  39  82 S8        29.62F
6HR MIN TEMP:  42; 6HR MAX TEMP:  46; 6HR PCP:  0.29;

MONTICELLO*    CLOUDY    47  44  91 S10G16    29.59F
6HR MIN TEMP:  43; 6HR MAX TEMP:  47; 6HR PCP:  0.03;

WARSAW*        CLOUDY    43  41  93 S5        29.61F
AUBURN*        CLOUDY    43  41  93 S5        29.65F
FORT WAYNE     CLOUDY    47  43  86 S13       29.64F
6HR MIN TEMP:  44; 6HR MAX TEMP:  48; 6HR PCP:  0.29;


$$
INZ028>050-180700-
CENTRAL INDIANA

CITY           SKY/WX    TMP DP  RH WIND       PRES   REMARKS
LAFAYETTE      CLOUDY    51  44  77 S6        29.60F
6HR MIN TEMP:  43; 6HR MAX TEMP:  51; 6HR PCP:  0.11;

KOKOMO*        CLOUDY    47  42  83 S16       29.62F
6HR MIN TEMP:  43; 6HR MAX TEMP:  47; 6HR PCP:  0.17;

MUNCIE*        CLOUDY    50  41  71 S14G23    29.65F
6HR MIN TEMP:  47; 6HR MAX TEMP:  50; 6HR PCP:  0.15;

INDIANAPOLIS   CLOUDY    51  43  74 S9        29.66F
6HR MIN TEMP:  45; 6HR MAX TEMP:  51; 6HR PCP:  0.04;


$$
MIZ043>046-050>051-056>058-064>065-071>073-077>080-180700-
SOUTHWEST LOWER MICHIGAN

CITY           SKY/WX    TMP DP  RH WIND       PRES   REMARKS
BATTLE CREEK   LGT RAIN  41  40  96 SW9       29.61F FOG
6HR MIN TEMP:  40; 6HR MAX TEMP:  44; 6HR PCP:  0.64;

BENTON HARBOR  RAIN      44  41  89 S7        29.60S FOG
6HR MIN TEMP:  42; 6HR MAX TEMP:  44; 6HR PCP:  0.53;

COLDWATER*     DRIZZLE   42  42 100 S8G16     29.61F
6HR MIN TEMP:  40; 6HR MAX TEMP:  44;

HILLSDALE*     RAIN      39  37  93 S12       29.62F
HOLLAND        LGT RAIN  43  41  93 S7        29.61F FOG
6HR MIN TEMP:  42; 6HR MAX TEMP:  43; 6HR PCP:  0.49;

GRAND RAPIDS   CLOUDY    42  42 100 S8        29.61F FOG
6HR MIN TEMP:  41; 6HR MAX TEMP:  42; 6HR PCP:  0.57;

KALAMAZOO      LGT RAIN  42  39  89 S12       29.61F FOG
6HR MIN TEMP:  41; 6HR MAX TEMP:  45; 6HR PCP:  0.63;

THREE RIVERS*  RAIN      42  41  97 S12       29.61F
6HR MIN TEMP:  41; 6HR MAX TEMP:  46;


$$
OHZ001>008-015>018-024>025-180700-
NORTHWEST OHIO

CITY           SKY/WX    TMP DP  RH WIND       PRES   REMARKS
DEFIANCE       LGT RAIN  43  40  89 S10G22    29.66F FOG
6HR MIN TEMP:  42; 6HR MAX TEMP:  46; 6HR PCP:  0.42;

FINDLAY        HVY RAIN  43  37  79 S7        29.72R
6HR MIN TEMP:  43; 6HR MAX TEMP:  46; 6HR PCP:  0.24;

TOLEDO EXPRESS LGT RAIN  42  41  96 S8        29.68F FOG
6HR MIN TEMP:  42; 6HR MAX TEMP:  47; 6HR PCP:  0.44;

TOLEDO METCALF RAIN      42  38  85 S14       29.72S FOG
6HR MIN TEMP:  42; 6HR MAX TEMP:  46; 6HR PCP:  0.24;

LIMA           HVY RAIN  44  41  89 S13       29.69F FOG
6HR MIN TEMP:  43; 6HR MAX TEMP:  45; 6HR PCP:  0.34;


$$
AND FOR LAKE MICHIGAN COASTAL AND OPEN LAKE BUOY OBSERVATIONS

STATION/POSITION TEMP    WIND        PRES    VSBY  WAVE
                 AIR SEA DIR/SP/G                  HT/PER
                 (F)     (DEG/KT/KT) (MB)    (MI)  (FT/S)
MICHIGAN CITY     44     170/ 10/ 14   N/A
BURNS HARBOR      46     200/ 11/ 15 1002.4F
SAINT JOSEPH      43     190/  5/ 13 1002.7
SOUTH LAKE BUOY   46 50  240/ 16/ 19 1002.6          6/ 7

$$
&&




USA.gov is the U.S. government's official web portal to all federal, state and local government web resources and services.